Camarillo, CA

11:32 AM PDT on April 20, 2018 (GMT -0700)
Camarillo

Weather History for KCMA - September, 2011

Change the Weather History Date:

Saturday, September 24, 2011

  Actual Average Record
Temperature  
Mean Temperature 67 °F 66 °F  
Max Temperature 70 °F 76 °F 103 °F (1978)
Min Temperature 64 °F 56 °F 42 °F (1941)
Degree Days  
Heating Degree Days 0 1  
Month to date heating degree days 3 6  
Since 1 July heating degree days 6 21  
Cooling Degree Days 2 2  
Month to date cooling degree days 89 61  
Year to date cooling degree days 400 273  
Growing Degree Days 16 (Base 50)    
Moisture  
Dew Point 59 °F    
Average Humidity 76    
Maximum Humidity 84    
Minimum Humidity 68    
Precipitation  
Precipitation 0.00 in 0.01 in 0.98 in (1986)
Month to date precipitation 0.02 0.12  
Year to date precipitation 10.25 11.16  
Since 1 July precipitation 0.02  
Sea Level Pressure  
Sea Level Pressure 29.98 in    
Wind  
Wind Speed 4 mph (SW)    
Max Wind Speed 12 mph    
Max Gust Speed -    
Visibility 8 miles    
Events      
T = Trace of Precipitation, MM = Missing Value Source: NWS Daily Summary

Daily Weather History Graph

Daily Weather History Graph

Search for Another Location

Airport or City:

Astronomy

Sep. 24, 2011 Rise Set
Actual Time 6:45 AM PDT 6:50 PM PDT
Civil Twilight 6:20 AM PDT 7:15 PM PDT
Nautical Twilight 5:51 AM PDT 7:44 PM PDT
Astronomical Twilight 5:22 AM PDT 8:14 PM PDT
Moon 3:34 AM PDT (9/24) 4:54 PM PDT (9/24)
Length of Visible Light 12h 54m
Length of Day
12h 04m
Waning Crescent, 10% of the Moon is Illuminated
Sep 24
Waning Crescent
Sep 27
New
Oct 3
First Quarter
Oct 11
Full
Oct 19
Last Quarter

Hourly Weather History & Observations

Time (PDT) Temp. Dew Point Humidity Pressure Visibility Wind Dir Wind Speed Gust Speed Precip Events Conditions
12:55 AM 66.0 °F 60.1 °F 81% 29.97 in 8.0 mi Calm Calm - N/A   Overcast
1:55 AM 66.9 °F 60.1 °F 79% 29.97 in 7.0 mi SW 4.6 mph - N/A   Overcast
2:55 AM 66.9 °F 60.1 °F 79% 29.97 in 6.0 mi SSW 3.5 mph - N/A   Haze
3:55 AM 66.0 °F 59.0 °F 78% 29.97 in 7.0 mi SW 5.8 mph - N/A   Overcast
4:55 AM 66.0 °F 59.0 °F 78% 29.97 in 8.0 mi SW 3.5 mph - N/A   Overcast
5:55 AM 66.0 °F 59.0 °F 78% 29.97 in 7.0 mi SW 4.6 mph - N/A   Overcast
9:55 AM 66.9 °F 59.0 °F 76% 30.03 in 8.0 mi SW 3.5 mph - N/A   Overcast
10:00 AM 66.2 °F 59.0 °F 78% 30.00 in 8.0 mi SSW 3.5 mph - N/A   Overcast
10:55 AM 66.9 °F 59.0 °F 76% 30.02 in 7.0 mi WSW 3.5 mph - N/A   Overcast
11:55 AM 68.0 °F 59.0 °F 73% 30.01 in 7.0 mi Calm Calm - N/A   Overcast
12:55 PM 69.1 °F 60.1 °F 73% 30.00 in 7.0 mi SW 6.9 mph - N/A   Overcast
1:55 PM 68.0 °F 59.0 °F 73% 29.99 in 8.0 mi SW 6.9 mph - N/A   Overcast
2:55 PM 68.0 °F 59.0 °F 73% 29.98 in 9.0 mi SW 6.9 mph - N/A   Overcast
3:55 PM 68.0 °F 59.0 °F 73% 29.97 in 10.0 mi WSW 9.2 mph - N/A   Overcast
4:55 PM 68.0 °F 57.9 °F 70% 29.96 in 10.0 mi WSW 6.9 mph - N/A   Overcast
5:55 PM 66.9 °F 57.9 °F 73% 29.96 in 10.0 mi WSW 5.8 mph - N/A   Overcast
6:55 PM 66.0 °F 57.9 °F 75% 29.96 in 10.0 mi West 8.1 mph - N/A   Overcast
9:55 PM 66.0 °F 59.0 °F 78% 29.99 in 9.0 mi Calm Calm - N/A   Overcast
10:55 PM 64.9 °F 59.0 °F 81% 29.99 in 7.0 mi West 3.5 mph - N/A   Overcast
11:55 PM 64.0 °F 59.0 °F 84% 29.99 in 6.0 mi West 5.8 mph - N/A   Haze